Погода в Давлеканово

Россия / Республика Башкортостан     54°13′21″N   55°01′52″E
темп.,
°C
ветер,
м/с
пор.,
м/с
влажн.,
%
обл.,
%
осадки,
мм/ч
давл.,
гПа
погр.,
м
22 января, сб
сб2223:00−13ююв239774 0.1 102580
02:00−16ююв1110088 0.0 102614
05:00−18ю22100100 0.1 102711
08:00−19ююв22100100 0.1 102710
11:00−12ююв2695100 0.1 1028156
14:00−9ююв489299 0.0 1028269
17:00−12юв249682 0.0 102940
20:00−18ю229893 0.0 10319
23 января, вс
вс2323:00−19ю2297100 0.0 103213
02:00−17ю2293100 0.0 103223
05:00−15ююв2293100 0.0 103325
08:00−16ююв1194100 0.0 103410
11:00−12ююв2386100 0.0 103466
14:00−9ююв1289100 0.0 103580
17:00−11юв1194100 0.0 103610
20:00−14ююв119798 0.0 10379
24 января, пн
пн2423:00−16ю1198100 0.0 10389
02:00−14ю1196100 0.0 103813
05:00−14ю1195100 0.0 10399
08:00−16ю1195100 0.0 10409
11:00−12ю2289100 0.0 104056
14:00−8ююз0185100 0.0 103965
17:00−10ссв1192100 0.0 103910
20:00−14зюз1195100 0.0 10409
25 января, вт
вт2523:00−15ссз0096100 0.0 10399
02:00−16зюз1197100 0.0 10399
05:00−19юз1110098 0.0 10389
08:00−20ю0110063 0.0 10389
11:00−19ю119816 0.0 103713
14:00−11ю129020 0.0 103556
17:00−14ююв11965 0.0 10349
20:00−19ю1110060 0.0 10349
26 января, ср
ср2623:00−21ю2210068 0.0 10349
02:00−22ююз229922 0.0 103311
05:00−22ю219866 0.0 103310
08:00−23ю229872 0.0 103210
11:00−19ю23925 0.0 103146
14:00−12ю23858 0.0 103093
17:00−15ююв229357 0.0 10309
20:00−17ю229794 0.0 103029